This is the latest recevied weather packets stored in our database for station/object KE5KUL-13. If no packets are shown the sender has not sent any weather packets the latest 10 day(s).
| Time | Temp. | Humidity | Pressure | Rain* | Wind** | Luminosity | Snow |
|---|---|---|---|---|---|---|---|
| 1778066417 | 5° C | 80% | 1015.9 hPa | 0 mm | - | - | - |
| 1778065817 | 5° C | 81% | 1015.8 hPa | 0 mm | - | - | - |
| 1778065217 | 5° C | 82% | 1016 hPa | 0 mm | - | - | - |
| 1778064618 | 5.56° C | 82% | 1016.2 hPa | 0 mm | - | - | - |
| 1778064018 | 5.56° C | 81% | 1016.2 hPa | 0 mm | - | - | - |
| 1778063417 | 6.11° C | 79% | 1016.1 hPa | 0 mm | - | - | - |
| 1778062817 | 6.67° C | 78% | 1016.3 hPa | 0 mm | - | - | - |
| 1778062218 | 6.67° C | 78% | 1016.1 hPa | 0 mm | - | - | - |
| 1778061658 | 6.67° C | 78% | 1015.8 hPa | 0 mm | - | - | - |
| 1778061317 | 6.67° C | 78% | 1015.7 hPa | 0 mm | - | - | - |
| 1778060717 | 6.67° C | 78% | 1015.8 hPa | 0 mm | - | - | - |
| 1778060117 | 7.22° C | 77% | 1015.4 hPa | 0 mm | - | - | - |
| 1778059517 | 7.22° C | 77% | 1015.1 hPa | 0 mm | - | - | - |
| 1778058917 | 7.22° C | 77% | 1015.2 hPa | 0 mm | - | - | - |
| 1778058317 | 7.22° C | 76% | 1014.9 hPa | 0 mm | - | - | - |
| 1778057717 | 7.22° C | 76% | 1015 hPa | 0 mm | - | - | - |
| 1778057117 | 7.22° C | 75% | 1015.4 hPa | 0 mm | - | - | - |
| 1778056517 | 7.22° C | 75% | 1015.4 hPa | 0 mm | - | - | - |
| 1778055917 | 7.22° C | 76% | 1014.8 hPa | 0 mm | - | - | - |
| 1778055317 | 6.67° C | 76% | 1014.5 hPa | 0 mm | - | - | - |
| 1778054717 | 6.67° C | 77% | 1014.8 hPa | 0 mm | - | - | - |
| 1778054117 | 6.11° C | 77% | 1014.2 hPa | 0 mm | - | - | - |
| 1778053517 | 6.11° C | 76% | 1013.6 hPa | 0 mm | - | - | - |
| 1778052917 | 6.11° C | 76% | 1013.8 hPa | 0 mm | - | - | - |
| 1778052317 | 6.67° C | 76% | 1013.7 hPa | 0 mm | - | - | - |
* Rain latest hour (hover to see other rain measurements)
** Current wind speed in m/s (hover to see current wind gust speed)